Volver al catálogo

DELTA 2 DEB

DPAF

ActivoPO
NORAD 29110·DEBRIS·🇺🇸 United States

Lanzado Apr 28, 2006 desde Vandenberg Space Force Base

Loading…

Próximos Pases (próximas 24 horas)

TLE

ActualizadoSource: Space-Track

Época: Sep 14, 2026, 13:38 UTC

1 29110U 06016D   26257.56851175  .00045315  00000-0  12126-2 0  9998
2 29110  98.3240 195.3363 0004934  61.8412 298.3328 15.37896335 97497

Sigue DELTA 2 DEB en tiempo real con AllMySat

Download on the App Store